Home > Weather > Baltimore > Past weeks

Flag for U.S.A. Weather for the Past 2 Weeks in Baltimore, Maryland, U.S.A.

Now
11 °F

Passing clouds.


Feels Like: 1 °F
Forecast: 8 / 21 °F
Wind: 6 mph from Northwest

Location: Baltimore-Washington International Airport

Current Time: Feb 14, 2016 at 3:46:53 AM

Latest Report: Feb 14, 2016 at 2:54 AM


Visibility: 10 mi

Pressure: 30.44 "Hg

Humidity: 51%

Dew point: -4 °F

Location of BaltimoreLocation

Historic Weather in Baltimore — Graph

°F

Baltimore Temperature Yesterday

Maximum temperature yesterday: 23 °F (at 3:54 AM)
Minimum temperature yesterday: 13 °F (at 10:54 PM)
Average temperature yesterday: 19 °F

High & Low Weather Summary for the Past Weeks

 TemperatureHumidityPressure
High61 °F (Jan 31, 2:54 PM)100% (Feb 1, 6:54 PM)30.46 "Hg (Feb 1, 6:54 PM)
Low12 °F (Feb 14, 12:54 AM)29% (Feb 13, 11:54 AM)29.54 "Hg (Feb 9, 1:54 PM)
Average35 °F65%30.03 "Hg
* Reported Jan 30 1:54 AM — Feb 14 1:54 AM, Baltimore, Weather by CustomWeather, © 2016

Note: Actual official high and low records may vary slightly from our data, if they occured in-between our weather recording intervals... More about our weather records

Advertising

Baltimore Weather History for the Previous 24 Hours

 ConditionsComfort  
Time TempWeatherWind HumidityBarometerVisibility
1:54 AM
Sun, Feb 14
12 °FPassing clouds.12 mph48%30.44 "Hg10 mi
12:54 AM12 °FPassing clouds.10 mph48%30.43 "Hg10 mi
11:54 PM
Sat, Feb 13
13 °FPassing clouds.12 mph46%30.43 "Hg10 mi
10:54 PM13 °FPassing clouds.14 mph46%30.42 "Hg10 mi
9:54 PM14 °FPassing clouds.13 mph47%30.42 "Hg10 mi
8:54 PM14 °FPassing clouds.16 mph49%30.41 "Hg10 mi
7:54 PM15 °FPassing clouds.20 mph44%30.40 "Hg10 mi
6:54 PM16 °FPassing clouds.16 mph38%30.38 "Hg10 mi
5:54 PM16 °FPassing clouds.16 mph38%30.36 "Hg10 mi
4:54 PM17 °FPartly sunny.18 mph35%30.32 "Hg10 mi
3:54 PM19 °FPartly sunny.15 mph36%30.29 "Hg10 mi
2:54 PM19 °FPartly sunny.21 mph34%30.27 "Hg10 mi
1:54 PM21 °FPartly sunny.17 mph31%30.25 "Hg10 mi
12:54 PM22 °FPartly sunny.16 mph30%30.25 "Hg10 mi
11:54 AM20 °FPartly sunny.14 mph29%30.24 "Hg10 mi
10:54 AM21 °FScattered clouds.22 mph31%30.24 "Hg10 mi
10:02 AM20 °FScattered clouds.21 mph40%30.22 "Hg10 mi
9:54 AM19 °FLight snow. Broken clouds.23 mph52%30.22 "Hg9 mi
8:54 AM21 °FLight snow. Partly sunny.20 mph41%30.19 "Hg10 mi
7:54 AM20 °FPassing clouds.10 mph43%30.17 "Hg10 mi
6:54 AM20 °FPassing clouds.13 mph55%30.13 "Hg10 mi
5:54 AM21 °FPassing clouds.14 mph50%30.09 "Hg10 mi
4:54 AM21 °FPassing clouds.18 mph65%30.04 "Hg10 mi
3:54 AM23 °FPassing clouds.15 mph60%30.00 "Hg10 mi
Weather by CustomWeather, © 2016

See weather overviewHow to use our weather pages